This is the latest recevied weather packets stored in our database for station/object K5OLV. If no packets are shown the sender has not sent any weather packets the latest 10 day(s).
| Time | Temp. | Humidity | Pressure | Rain* | Wind** | Luminosity | Snow |
|---|---|---|---|---|---|---|---|
| 1777852776 | 15.56° C | 55% | 1014.7 hPa | 0 mm | - | 16 W/m² | - |
| 1777852474 | 15.56° C | 56% | 1014.5 hPa | 0 mm | - | 18 W/m² | - |
| 1777852171 | 16.11° C | 55% | 1014.4 hPa | 0 mm | - | 21 W/m² | - |
| 1777851869 | 16.11° C | 53% | 1014.4 hPa | 0 mm | - | 23 W/m² | - |
| 1777851567 | 16.11° C | 55% | 1014.4 hPa | 0 mm | - | 25 W/m² | - |
| 1777851263 | 16.67° C | 54% | 1014.5 hPa | 0 mm | - | 27 W/m² | - |
| 1777850959 | 16.67° C | 55% | 1014.5 hPa | 0 mm | - | 29 W/m² | - |
| 1777850656 | 16.67° C | 59% | 1014.4 hPa | 0 mm | - | 30 W/m² | - |
| 1777850354 | 16.67° C | 56% | 1014.4 hPa | 0 mm | - | 32 W/m² | - |
| 1777850051 | 16.67° C | 56% | 1014.7 hPa | 0 mm | - | 34 W/m² | - |
| 1777849748 | 16.67° C | 56% | 1014.6 hPa | 0 mm | - | 35 W/m² | - |
| 1777849444 | 17.22° C | 56% | 1014.6 hPa | 0 mm | - | 37 W/m² | - |
| 1777849142 | 17.22° C | 55% | 1014.4 hPa | 0 mm | - | 47 W/m² | - |
| 1777848838 | 17.22° C | 53% | 1014.7 hPa | 0 mm | - | 40 W/m² | - |
| 1777848534 | 17.22° C | 55% | 1014.8 hPa | 0 mm | - | 41 W/m² | - |
| 1777848231 | 17.22° C | 54% | 1014.6 hPa | 0 mm | - | 43 W/m² | - |
| 1777847929 | 17.22° C | 53% | 1014.6 hPa | 0 mm | - | 42 W/m² | - |
| 1777847627 | 17.78° C | 56% | 1014.8 hPa | 0 mm | - | 49 W/m² | - |
| 1777847322 | 17.22° C | 52% | 1014.6 hPa | 0 mm | - | 109 W/m² | - |
| 1777847021 | 17.78° C | 54% | 1014.8 hPa | 0 mm | - | 62 W/m² | - |
| 1777846718 | 17.22° C | 52% | 1014.8 hPa | 0 mm | - | 180 W/m² | - |
| 1777846417 | 17.78° C | 55% | 1014.7 hPa | 0 mm | - | 95 W/m² | - |
| 1777846112 | 17.78° C | 53% | 1014.9 hPa | 0 mm | - | 81 W/m² | - |
| 1777845810 | 17.78° C | 52% | 1014.9 hPa | 0 mm | - | 140 W/m² | - |
| 1777845506 | 17.78° C | 51% | 1014.7 hPa | 0 mm | - | 167 W/m² | - |
* Rain latest hour (hover to see other rain measurements)
** Current wind speed in m/s (hover to see current wind gust speed)